EHI
0 0 0 0 0 0 0 0 0 0 0 0 0 0 0 0 0 0 0 0 0 1 0 1 2 3 3 6 8 10 9 8 8 6 3 1 1 0 0 0 0 0 0 0
0 0 0 0 0 0 0 0 0 0 0 0 0 0 0 0 0 0 0 0 0 1 0 1 2 2 3 4 6 7 8 9 8 7 4 3 2 1 0 0 0 0 0 0
0 0 0 0 0 0 0 0 0 0 0 0 0 0 0 0 0 0 0 0 0 0 0 1 1 1 2 3 4 6 9 10 9 7 6 5 4 3 1 1 0 0 0 0
0 0 0 0 0 0 0 0 0 0 0 0 0 0 0 0 0 0 0 0 0 0 0 0 0 0 1 2 4 7 10 10 9 8 7 7 7 5 4 3 1 0 0 0
0 0 0 0 0 0 0 0 0 0 0 0 0 0 0 0 0 0 0 0 0 0 0 0 0 0 0 1 2 5 8 9 9 9 10 10 10 9 8 5 3 1 1 1
0 0 0 0 0 0 0 0 0 0 0 0 0 0 0 0 0 0 0 0 0 0 0 0 0 0 0 0 1 2 5 6 7 9 11 12 12 11 9 6 4 3 3 2
0 0 0 0 0 0 0 0 0 0 0 0 0 0 0 0 0 0 0 0 0 0 0 0 0 0 0 0 1 2 3 3 4 7 10 12 13 11 9 6 4 4 4 3
0 0 0 0 0 0 0 0 0 0 0 0 0 0 0 0 0 0 0 0 0 0 0 0 0 0 0 0 1 1 1 1 2 5 9 10 11 10 8 5 4 4 4 3
0 0 0 0 0 0 0 0 0 0 0 0 0 0 0 0 0 0 0 0 0 0 0 0 0 0 0 0 0 0 0 0 1 3 6 8 8 8 5 3 3 3 2 1
0 0 0 0 0 0 0 0 0 0 0 0 0 0 0 0 0 0 0 0 0 0 0 0 0 0 0 0 0 0 0 0 0 1 4 5 5 4 3 2 1 1 0 0
0 0 0 0 0 0 0 0 0 0 0 0 0 0 0 0 0 0 0 0 0 0 0 0 0 0 0 0 0 0 0 0 0 1 3 4 3 3 1 1 0 0 0 0
0 0 0 0 0 0 0 0 0 0 0 0 0 0 0 0 0 0 0 0 0 0 0 0 0 0 0 0 0 0 0 0 0 1 2 2 2 2 1 0 0 0 0 0
0 0 0 0 0 0 0 0 0 0 0 0 0 0 0 0 0 0 0 0 0 0 0 0 0 0 0 0 0 0 0 0 0 0 1 1 1 1 0 0 0 0 0 0
0 0 0 0 0 0 0 0 0 0 0 0 0 0 0 0 0 0 0 0 0 0 0 0 0 0 0 0 0 0 0 0 0 0 0 0 0 0 0 0 0 0 0 0
0 0 0 0 0 0 0 0 0 0 0 0 0 0 0 0 0 0 0 0 0 0 0 0 0 0 0 0 0 0 0 0 0 0 0 0 0 0 0 0 0 0 0 0
0 0 0 0 0 0 0 0 0 0 0 0 0 0 0 0 0 0 0 0 0 0 0 0 0 0 0 0 0 0 0 0 0 0 0 0 0 0 0 0 0 0 0 0
0 0 0 0 0 0 0 0 0 0 0 0 0 0 0 0 0 0 0 0 0 0 0 0 0 0 0 0 0 0 0 0 0 0 0 0 0 0 0 0 0 0 0 0
0 0 0 0 0 0 0 0 0 0 0 0 0 0 0 0 0 0 0 0 0 0 0 0 0 0 0 0 0 0 0 0 0 0 0 0 0 0 0 0 0 0 0 0
0 0 0 0 0 0 0 0 0 0 0 0 0 0 0 0 0 0 0 0 0 0 0 0 0 0 0 0 0 0 0 0 0 0 0 0 0 0 0 0 0 0 0 0
0 0 0 0 0 0 0 0 0 0 0 0 0 0 0 0 0 0 0 0 0 0 0 0 0 0 0 0 0 0 0 0 0 0 0 0 0 0 0 0 0 0 0 0
0 0 0 0 0 0 0 0 0 0 0 0 0 0 0 0 0 0 0 0 0 0 0 0 0 0 0 0 0 0 0 0 0 0 0 0 0 0 0 0 0 0 0 0
0 0 0 0 0 0 0 0 0 0 0 0 0 0 0 0 0 0 0 0 0 0 0 0 0 0 0 0 0 0 0 0 0 0 0 0 0 0 0 0 0 0 0 0
0 0 0 0 0 0 0 0 0 0 0 0 0 0 0 0 0 0 0 0 0 0 0 0 0 0 0 0 0 0 0 0 0 0 0 0 0 0 0 0 0 0 0 0
0 0 0 0 0 0 0 0 0 0 0 0 0 0 0 0 0 0 0 0 0 0 0 0 0 0 0 0 0 0 0 0 0 0 0 0 0 0 0 0 0 0 0 0
0 0 0 0 0 0 0 0 0 0 0 0 0 0 0 0 0 0 0 0 0 0 0 0 0 0 0 0 0 0 0 0 0 0 0 0 0 0 0 0 0 0 0 0
0 0 0 0 0 0 0 0 0 0 0 0 0 0 0 0 0 0 0 0 0 0 0 0 0 0 0 0 0 0 0 0 0 0 0 0 0 0 0 0 0 0 0 0
Wind_Speed
2 3 1 1 1 2 2 4 2 1 1 3 4 5 6 4 4 6 6 6 7 8 6 5 6 6 6 7 8 9 10 10 9 6 6 5 5 4 4 4 6 7 7 7
4 2 2 1 0 2 3 4 2 1 1 1 1 5 6 5 6 8 8 8 8 6 5 5 5 5 7 8 8 9 10 10 9 7 6 4 5 3 4 3 4 6 7 7
1 2 2 1 2 3 3 2 2 2 2 3 1 4 5 5 5 6 6 7 7 8 8 7 7 7 6 8 9 9 10 9 9 8 5 4 3 2 2 4 4 4 6 6
1 3 2 2 1 3 1 1 2 4 3 1 1 2 5 4 6 7 8 8 8 8 9 8 7 6 6 7 7 8 8 8 8 8 8 9 7 6 6 5 4 4 5 5
1 2 2 1 1 2 2 1 2 3 3 1 0 1 6 3 6 9 10 10 10 9 8 8 7 6 5 5 5 5 6 7 7 8 9 8 6 5 4 4 5 5 4 5
1 1 1 1 1 1 2 4 5 4 3 0 3 3 6 5 8 7 7 7 7 7 6 5 4 4 4 3 4 5 5 5 5 7 8 8 8 7 6 5 5 4 3 3
4 3 2 1 2 3 3 5 3 3 1 4 3 3 8 7 7 8 8 6 5 4 4 4 4 4 4 4 4 4 6 5 5 6 6 7 7 8 8 7 6 5 4 3
2 3 2 1 1 2 1 4 5 3 3 2 1 5 8 7 5 5 4 3 2 2 3 3 3 4 4 5 5 5 5 4 4 5 6 5 6 5 4 5 5 5 4 3
1 2 2 0 0 2 3 1 3 3 0 1 3 5 7 4 4 2 1 1 0 1 0 1 1 2 3 4 4 5 6 5 4 4 4 4 4 4 4 4 4 3 3 3
1 0 2 1 2 2 2 2 3 3 1 1 3 3 3 5 4 4 2 2 2 1 1 0 0 1 1 1 2 2 3 4 3 3 3 3 4 4 4 5 5 4 4 3
1 1 2 1 1 2 2 1 2 2 2 2 2 5 3 3 3 3 3 2 1 1 1 1 1 0 1 1 2 2 3 3 3 3 3 4 4 4 5 4 5 5 4 4
1 2 1 3 3 2 3 3 3 2 2 2 1 5 4 2 2 2 2 3 3 2 1 1 0 0 1 1 1 2 2 3 3 3 4 4 4 5 5 5 4 5 5 4
1 2 2 4 3 1 1 2 3 2 1 2 3 5 3 4 6 5 3 3 3 2 2 1 1 0 1 1 1 2 2 3 3 4 5 5 5 5 5 5 5 5 5 4
2 2 3 4 4 2 2 3 3 3 2 3 4 5 6 5 5 5 4 3 3 2 2 1 1 1 1 2 2 2 2 3 4 5 5 5 5 5 5 5 5 5 4 4
3 1 1 3 3 2 3 4 3 4 5 4 4 5 7 4 3 4 3 3 3 2 2 1 1 2 1 1 2 2 3 3 4 5 5 5 5 5 5 5 4 4 4 4
2 0 1 2 2 1 2 4 3 4 4 5 5 6 4 3 2 2 3 2 2 3 2 2 2 1 2 2 2 2 3 3 4 5 5 5 5 5 5 5 5 4 4 3
1 1 1 2 3 3 3 3 1 1 1 2 3 3 3 3 3 3 3 2 2 3 3 2 2 2 3 3 3 3 3 3 4 5 5 5 6 5 5 5 5 4 4 3
2 1 1 1 3 1 3 2 1 1 3 4 2 3 4 3 2 4 4 3 3 4 3 3 3 3 3 2 2 2 2 3 4 4 5 5 6 5 5 5 5 4 3 3
3 2 1 1 0 4 3 2 2 1 2 5 4 5 6 4 2 4 6 5 4 5 4 3 3 2 3 2 1 2 2 2 3 4 5 5 6 6 6 5 5 4 3 3
2 2 2 1 1 4 3 4 4 0 1 4 5 6 7 5 3 4 7 7 6 5 4 3 3 3 2 3 1 2 2 2 3 4 4 4 5 6 6 5 4 3 3 3
1 1 1 2 3 5 3 5 2 1 3 3 4 5 5 4 3 5 7 7 6 5 5 3 3 3 3 3 1 1 1 2 2 2 2 3 4 5 5 4 3 4 3 3
4 3 3 3 3 6 2 2 1 2 2 2 4 4 4 5 5 6 6 7 7 6 5 4 3 3 3 3 1 0 1 1 0 1 2 2 3 3 4 4 4 4 4 4
4 5 4 5 5 1 1 1 1 0 1 2 3 4 5 6 6 7 6 6 6 6 5 4 3 3 3 3 2 1 2 1 0 1 1 2 2 3 4 5 5 4 4 4
3 1 2 2 3 2 1 1 0 1 2 3 4 4 5 6 7 7 7 6 6 6 5 3 3 3 3 2 2 1 1 0 1 1 1 1 2 2 3 3 4 4 4 4
4 2 2 3 2 1 2 1 1 2 3 4 4 4 5 6 7 7 6 6 6 6 5 3 3 3 3 2 2 1 1 0 1 1 1 1 1 2 2 3 4 4 4 5
4 5 5 5 4 3 4 3 2 2 3 4 5 6 5 6 7 7 6 6 6 5 5 4 4 3 3 2 2 1 1 0 1 1 1 1 1 2 2 2 2 5 6 9
Wind_Direction
29 64 77 231 194 154 135 129 136 202 147 153 213 245 255 254 231 233 241 243 246 247 250 229 211 190 176 173 175 184 178 177 170 165 165 166 176 177 178 179 177 176 176 177
37 8 278 232 226 101 96 104 103 45 69 101 224 263 262 247 239 232 230 235 237 246 262 243 217 193 183 180 178 183 184 180 174 173 172 167 159 170 176 173 179 180 178 177
75 290 325 57 106 104 75 112 134 122 37 29 23 298 266 261 251 250 238 235 234 228 234 235 216 199 188 186 183 184 186 184 178 170 153 138 122 118 158 177 186 190 180 175
356 326 354 42 90 121 112 206 130 113 94 360 120 280 275 244 255 250 245 241 239 234 226 221 213 200 192 194 186 179 179 181 178 169 168 168 171 180 191 186 183 182 178 175
327 340 23 54 39 119 157 145 93 106 109 62 178 203 275 251 243 243 240 240 242 236 222 213 207 197 191 185 179 178 172 176 176 174 177 178 179 181 170 165 171 178 179 179
278 301 15 346 11 69 100 69 54 50 71 277 213 191 269 230 223 237 240 237 239 233 219 213 204 183 185 178 169 163 161 175 178 177 177 178 179 171 162 171 179 181 176 175
358 356 352 12 51 20 67 86 61 26 21 249 208 203 254 251 241 234 240 237 232 221 201 197 195 186 185 179 175 165 160 173 180 174 179 185 181 176 178 180 184 177 177 182
30 335 311 351 134 152 124 122 144 167 204 264 227 228 257 267 267 248 231 220 228 230 208 192 193 192 193 187 178 171 170 175 179 178 180 181 178 175 180 180 174 180 179 175
91 306 314 306 127 129 122 138 166 125 36 265 261 279 304 325 342 359 18 60 36 310 280 198 185 195 194 189 185 176 171 170 174 176 169 165 168 165 165 161 159 160 151 145
138 331 316 323 57 39 113 134 99 109 149 264 290 283 282 319 334 352 7 6 346 19 31 40 134 176 187 180 152 133 154 163 165 161 163 158 156 153 149 142 144 140 137 131
104 105 331 9 200 191 143 150 139 146 169 168 249 273 266 278 309 330 341 343 5 10 354 326 312 150 141 122 129 139 148 144 140 142 137 130 130 128 125 128 133 131 126 129
148 124 271 264 264 204 175 189 165 164 234 196 204 274 301 319 336 357 356 350 351 356 350 332 298 200 130 143 148 156 158 154 156 142 129 127 125 122 122 123 122 122 124 126
141 115 37 352 343 353 230 223 197 179 163 196 202 265 319 4 1 354 350 340 337 346 350 358 350 214 199 206 186 174 170 164 152 135 131 129 130 130 131 131 128 125 127 123
98 127 171 198 226 216 248 247 217 184 200 230 226 259 304 328 338 334 331 327 325 328 328 342 323 283 247 225 195 180 180 166 152 141 139 142 146 144 139 134 131 130 129 126
79 150 250 258 255 229 251 265 245 217 219 221 252 269 285 292 290 296 307 321 327 336 332 314 304 271 254 245 213 185 178 173 157 148 150 157 150 141 135 134 133 131 132 136
58 158 295 314 321 356 303 297 269 250 245 242 265 280 284 299 293 312 319 326 323 326 317 307 314 281 251 240 222 196 189 186 163 159 163 154 144 141 143 143 139 137 136 134
22 77 48 297 318 4 319 303 250 211 260 232 256 283 327 340 355 340 330 332 326 322 325 316 302 280 257 246 225 209 201 176 164 166 163 157 154 153 155 149 144 149 148 141
142 100 144 310 10 267 256 329 3 111 22 13 16 357 351 338 11 14 358 336 327 324 321 316 311 314 295 273 243 207 177 165 169 173 170 166 162 162 158 153 158 159 153 155
167 145 123 119 264 277 297 335 351 313 358 5 6 356 345 333 2 5 5 359 337 323 315 309 306 308 313 298 251 169 163 167 173 182 183 178 171 169 167 170 173 167 160 164
121 115 125 152 190 247 276 310 315 279 294 6 9 357 347 348 336 322 344 345 340 334 331 334 339 344 335 322 327 140 169 179 204 203 193 179 173 174 178 180 173 164 161 170
114 128 170 194 223 262 292 308 345 155 277 348 359 351 347 340 297 304 324 334 338 336 335 342 351 349 336 334 14 137 170 222 231 198 170 167 171 175 175 168 163 160 159 161
172 173 189 177 206 250 322 38 110 242 321 344 346 340 330 319 315 318 324 329 335 336 337 340 345 340 341 350 9 138 251 272 318 138 153 165 170 170 163 161 162 162 164 171
195 191 190 195 211 204 103 133 177 112 310 315 318 319 319 315 315 316 317 319 322 324 327 330 327 330 342 353 1 301 301 344 80 136 164 172 168 169 166 168 171 171 175 184
258 189 176 226 241 228 195 155 25 327 297 304 307 310 313 307 307 309 309 309 313 317 316 319 320 317 320 331 341 314 315 8 106 150 184 176 171 176 175 175 179 185 189 194
228 189 192 239 256 306 232 233 285 306 312 314 315 311 307 303 303 303 304 304 303 308 307 305 298 293 297 313 324 337 337 100 134 180 193 187 185 185 191 196 200 201 208 203
206 185 184 217 212 207 245 254 266 285 297 302 307 308 308 303 301 303 301 300 299 301 302 301 297 291 296 303 312 327 329 178 179 225 225 215 207 201 197 202 228 227 224 228